Location: Firdgum
(53.2488°N, 5.5615°E)
Time: 19:47:00
(UTC+00:00)

STARLINK 1014 - Pass Details

Date: 08 December 2019
Orbit: 347 x 352 km, 53.0° (Epoch: 19 January)

Event Time Altitude Azimuth Distance (km) Brightness Sun altitude
Exits shadow 05:28:57 27° 202° (SSW) 743 4.2 -18.1°
Drops below altitude 10° 05:31:21 10° 150° (SSE) 1,344 6.2 -17.7°
Sets 05:33:30 0° 137° (SE) 2,180 7.7 -17.4°
